Weather History for KJMS - November, 2013

Change the Weather History Date:

Sunday, November 3, 2013

  Actual Average Record
Temperature  
Mean Temperature 44 °F 35 °F  
Max Temperature 54 °F 45 °F 77 °F (1904)
Min Temperature 33 °F 25 °F -2 °F (1991)
Degree Days  
Heating Degree Days 21 30  
Month to date heating degree days 71 88  
Since 1 July heating degree days 939 1055  
Cooling Degree Days 0 0  
Month to date cooling degree days 0 0  
Year to date cooling degree days 521 446  
Moisture  
Dew Point 33 °F    
Average Humidity 69    
Maximum Humidity 92    
Minimum Humidity 46    
Precipitation  
Precipitation 0.00 in 0.03 in 0.25 in (1983)
Month to date precipitation 0.01 0.08  
Year to date precipitation 15.87 17.82  
Sea Level Pressure  
Sea Level Pressure 29.67 in    
Wind  
Wind Speed 13 mph (SSE)    
Max Wind Speed 23 mph    
Max Gust Speed 30 mph    
Visibility 10 miles    
Events      
T = Trace of Precipitation, MM = Missing Value Source: NWS Daily Summary

Daily Weather History Graph

Daily Weather History Graph

Search for Another Location

Airport or City:

Trip Planner

Search our weather history database for the weather conditions in past years. The results will help you decide how hot, cold, wet, or windy it might be!

Date:

Astronomy

Nov. 03, 2013 Rise Set
Actual Time 7:20 AM CST 5:15 PM CST
Civil Twilight 6:48 AM CST 5:47 PM CST
Nautical Twilight 6:12 AM CST 6:23 PM CST
Astronomical Twilight 5:37 AM CST 6:58 PM CST
Moon 7:27 AM CST 5:29 PM CST
Length of Visible Light 10h 58m
Length of Day
9h 54m
New Moon, 0% of the Moon is Illuminated
Nov 3
New Moon
Nov 9
First Quarter
Nov 17
Full
Nov 25
Last Quarter
Dec 2
New

Hourly Weather History & Observations

Time (CST) Temp. Windchill Dew Point Humidity Pressure Visibility Wind Dir Wind Speed Gust Speed Precip Events Conditions
12:56 AM 42.1 °F 35.2 °F 34.0 °F 73% 29.88 in 10.0 mi SSE 12.7 mph - N/A   Mostly Cloudy
1:56 AM 42.1 °F 34.9 °F 33.1 °F 70% 29.86 in 10.0 mi SSE 13.8 mph - N/A   Scattered Clouds
1:56 AM 41.0 °F 33.1 °F 33.1 °F 73% 29.83 in 10.0 mi ESE 15.0 mph - N/A   Clear
2:56 AM 39.0 °F 31.4 °F 32.0 °F 76% 29.80 in 10.0 mi SE 12.7 mph - N/A   Clear
3:56 AM 39.9 °F 32.5 °F 30.9 °F 70% 29.76 in 10.0 mi ESE 12.7 mph - N/A   Clear
4:56 AM 39.9 °F 31.4 °F 30.9 °F 70% 29.73 in 10.0 mi ESE 16.1 mph - N/A   Clear
5:56 AM 39.9 °F 30.8 °F 30.0 °F 68% 29.70 in 10.0 mi ESE 18.4 mph 24.2 mph N/A   Clear
6:56 AM 37.9 °F 28.5 °F 30.0 °F 73% 29.67 in 10.0 mi ESE 17.3 mph 24.2 mph N/A   Clear
7:56 AM 37.9 °F 28.9 °F 30.9 °F 76% 29.67 in 10.0 mi ESE 16.1 mph 23.0 mph N/A   Clear
8:56 AM 39.9 °F 31.1 °F 30.9 °F 70% 29.66 in 10.0 mi SE 17.3 mph 26.5 mph N/A   Clear
9:56 AM 42.1 °F 33.3 °F 32.0 °F 67% 29.63 in 10.0 mi SE 19.6 mph 28.8 mph N/A   Clear
10:56 AM 45.0 °F 36.9 °F 33.1 °F 63% 29.60 in 10.0 mi SE 20.7 mph 25.3 mph N/A   Clear
11:56 AM 48.9 °F - 33.1 °F 54% 29.59 in 10.0 mi South 19.6 mph 27.6 mph N/A   Clear
12:56 PM 51.1 °F - 34.0 °F 52% 29.58 in 10.0 mi South 16.1 mph 27.6 mph N/A   Clear
1:56 PM 54.0 °F - 34.0 °F 47% 29.57 in 10.0 mi South 16.1 mph 25.3 mph N/A   Clear
2:56 PM 53.1 °F - 34.0 °F 48% 29.57 in 10.0 mi South 16.1 mph 26.5 mph N/A   Clear
3:56 PM 52.0 °F - 35.1 °F 53% 29.58 in 10.0 mi SSE 15.0 mph 21.9 mph N/A   Clear
4:56 PM 50.0 °F - 35.1 °F 57% 29.59 in 10.0 mi South 11.5 mph - N/A   Clear
5:56 PM 44.1 °F 40.8 °F 34.0 °F 68% 29.62 in 10.0 mi SSE 5.8 mph - N/A   Clear
6:56 PM 42.1 °F 38.4 °F 34.0 °F 73% 29.62 in 10.0 mi SE 5.8 mph - N/A   Clear
7:56 PM 42.1 °F 38.4 °F 35.1 °F 76% 29.64 in 10.0 mi South 5.8 mph - N/A   Clear
8:56 PM 41.0 °F 37.1 °F 34.0 °F 76% 29.64 in 10.0 mi West 5.8 mph - N/A   Clear
9:56 PM 37.0 °F 32.4 °F 33.1 °F 86% 29.65 in 10.0 mi NW 5.8 mph - N/A   Clear
10:56 PM 36.0 °F 31.1 °F 33.1 °F 89% 29.65 in 10.0 mi WNW 5.8 mph - N/A   Clear